Location: Observatorio Las Palmas
(29.0667°N, 110.9333°W)
Time: 05:07:37
(UTC-07:00)

Hubble Space Telescope - Visible Passes

Search period start: 30 June 2016 00:00
Search period end: 10 July 2016 00:00
Orbit: 539 x 543 km, 28.5° (Epoch: 30 June)

Date Brightness Start Highest point End Pass type
(mag) Time Alt. Az. Time Alt. Az. Time Alt. Az.
30 Jun 1.7 19:55:46 10° SW 19:59:25 30° SSE 20:03:04 10° E visible
30 Jun 1.6 21:36:19 10° WSW 21:39:09 41° WSW 21:39:09 41° WSW visible
01 Jul 1.4 19:45:50 10° SW 19:49:40 37° SSE 19:53:31 10° E visible
01 Jul 0.8 21:26:38 10° W 21:30:22 69° SW 21:30:22 69° SW visible
02 Jul 0.6 21:16:57 10° W 21:21:06 82° S 21:21:25 73° ESE visible
03 Jul 0.6 21:07:16 10° W 21:11:25 84° S 21:12:20 53° E visible
04 Jul 0.6 20:57:36 10° W 21:01:45 84° S 21:03:08 41° E visible
05 Jul 0.6 20:47:56 10° W 20:52:04 81° S 20:53:53 32° E visible
06 Jul 0.7 20:38:15 10° W 20:42:24 76° S 20:44:34 27° ESE visible
06 Jul 3.6 22:19:40 10° W 22:19:57 11° W 22:19:57 11° W visible
07 Jul 0.8 20:28:35 10° W 20:32:43 69° S 20:35:15 22° ESE visible
07 Jul 3.4 22:10:08 10° W 22:10:37 13° WSW 22:10:37 13° WSW visible
08 Jul 0.9 20:18:56 10° W 20:23:01 61° SSW 20:25:54 18° ESE visible
08 Jul 3.4 22:00:40 10° WSW 22:01:17 13° WSW 22:01:17 13° WSW visible
09 Jul 1.1 20:09:16 10° W 20:13:18 52° SSW 20:16:34 15° ESE visible
09 Jul 3.3 21:51:18 10° WSW 21:51:57 13° WSW 21:51:57 13° WSW visible
